TimeEDT,TemperatureF,Dew PointF,Humidity,Sea Level PressureIn,VisibilityMPH,Wind Direction,Wind SpeedMPH,Gust SpeedMPH,PrecipitationIn,Events,Conditions,WindDirDegrees,DateUTC
12:56 AM,61.0,57.9,90,30.27,8.0,Calm,Calm,-,N/A,,Clear,0,2013-08-18 04:56:00
1:56 AM,61.0,57.9,90,30.26,7.0,Calm,Calm,-,N/A,,Clear,0,2013-08-18 05:56:00
2:56 AM,61.0,59.0,93,30.26,8.0,Calm,Calm,-,N/A,,Clear,0,2013-08-18 06:56:00
3:56 AM,60.1,57.9,93,30.26,8.0,Calm,Calm,-,N/A,,Clear,0,2013-08-18 07:56:00
4:56 AM,59.0,57.0,93,30.25,9.0,Calm,Calm,-,N/A,,Clear,0,2013-08-18 08:56:00
5:56 AM,59.0,57.0,93,30.25,10.0,Calm,Calm,-,N/A,,Clear,0,2013-08-18 09:56:00
6:56 AM,62.1,59.0,90,30.27,10.0,Calm,Calm,-,N/A,,Clear,0,2013-08-18 10:56:00
7:56 AM,64.9,60.1,84,30.27,10.0,Calm,Calm,-,N/A,,Clear,0,2013-08-18 11:56:00
8:56 AM,70.0,61.0,73,30.26,10.0,Calm,Calm,-,N/A,,Clear,0,2013-08-18 12:56:00
9:56 AM,71.1,61.0,70,30.27,10.0,ESE,3.5,-,N/A,,Clear,120,2013-08-18 13:56:00
10:56 AM,71.1,61.0,70,30.26,10.0,Calm,Calm,-,N/A,,Scattered Clouds,0,2013-08-18 14:56:00
11:56 AM,75.0,61.0,62,30.25,10.0,Calm,Calm,-,N/A,,Clear,0,2013-08-18 15:56:00
12:56 PM,75.9,59.0,56,30.25,10.0,Calm,Calm,-,N/A,,Clear,0,2013-08-18 16:56:00
1:56 PM,73.0,62.1,68,30.22,10.0,SE,5.8,-,0.00,,Scattered Clouds,130,2013-08-18 17:56:00
2:56 PM,75.0,61.0,62,30.19,10.0,Variable,5.8,-,N/A,,Scattered Clouds,0,2013-08-18 18:56:00
3:56 PM,72.0,59.0,64,30.18,10.0,Calm,Calm,-,0.00,,Overcast,0,2013-08-18 19:56:00
4:56 PM,72.0,60.1,66,30.17,10.0,Calm,Calm,-,0.00,,Overcast,0,2013-08-18 20:56:00
5:56 PM,71.1,59.0,66,30.14,10.0,Calm,Calm,-,N/A,,Overcast,0,2013-08-18 21:56:00
6:56 PM,69.1,59.0,70,30.15,10.0,NW,3.5,-,0.00,Rain,Light Rain,320,2013-08-18 22:56:00
7:56 PM,64.9,57.0,75,30.15,10.0,Calm,Calm,-,0.02,,Overcast,0,2013-08-18 23:56:00
8:56 PM,63.0,57.9,84,30.16,10.0,Calm,Calm,-,0.00,,Clear,0,2013-08-19 00:56:00
9:56 PM,63.0,57.9,84,30.14,10.0,Calm,Calm,-,N/A,,Clear,0,2013-08-19 01:56:00
10:56 PM,62.1,57.0,84,30.15,10.0,Calm,Calm,-,N/A,,Clear,0,2013-08-19 02:56:00
11:56 PM,61.0,57.0,87,30.14,10.0,Calm,Calm,-,N/A,,Clear,0,2013-08-19 03:56:00